EN

Hourly Weather Burco

Today, 15 April, Thursday

Time Temperature Precipitation Wind Pressure Humidity
00:00 +27°C° 0 mm 3 mps 671 mmHg 44%
01:00 +26°C° 0 mm 3 mps 671 mmHg 48%
02:00 +26°C° 0 mm 2 mps 671 mmHg 51%
03:00 +25°C° 0 mm 2 mps 671 mmHg 52%
04:00 +24°C° 0 mm 2 mps 671 mmHg 57%
05:00 +22°C° 0 mm 3 mps 672 mmHg 63%
06:00 +21°C° 0 mm 3 mps 672 mmHg 69%
07:00 +22°C° 0 mm 4 mps 673 mmHg 64%
08:00 +25°C° 0 mm 4 mps 673 mmHg 60%
09:00 +26°C° 0 mm 4 mps 674 mmHg 56%
10:00 +28°C° 0 mm 4 mps 674 mmHg 49%
11:00 +30°C° 0 mm 4 mps 674 mmHg 42%
12:00 +32°C° 0 mm 4 mps 673 mmHg 34%
13:00 +33°C° 0 mm 3 mps 673 mmHg 30%
14:00 +34°C° 0 mm 3 mps 672 mmHg 26%
15:00 +35°C° 0 mm 2 mps 671 mmHg 22%
16:00 +35°C° 0 mm 2 mps 671 mmHg 23%
17:00 +34°C° 0 mm 3 mps 671 mmHg 24%
18:00 +34°C° 0 mm 3 mps 671 mmHg 25%
19:00 +33°C° 0 mm 3 mps 671 mmHg 29%
20:00 +31°C° 0 mm 3 mps 671 mmHg 32%
21:00 +32°C° 0 mm 4 mps 672 mmHg 36%
22:00 +30°C° 0 mm 3 mps 671 mmHg 39%
23:00 +29°C° 0 mm 3 mps 671 mmHg 41%

Tomorrow, 16 April, Friday

Time Temperature Precipitation Wind Pressure Humidity
00:00 +28°C° 0 mm 3 mps 671 mmHg 44%
01:00 +28°C° 0 mm 3 mps 671 mmHg 46%
02:00 +27°C° 0 mm 2 mps 670 mmHg 49%
03:00 +26°C° 0 mm 2 mps 670 mmHg 51%
04:00 +25°C° 0 mm 3 mps 671 mmHg 56%
05:00 +24°C° 0 mm 3 mps 671 mmHg 61%
06:00 +22°C° 0 mm 4 mps 671 mmHg 66%
07:00 +25°C° 0 mm 4 mps 672 mmHg 62%
08:00 +26°C° 0 mm 4 mps 673 mmHg 58%
09:00 +27°C° 0 mm 4 mps 674 mmHg 54%
10:00 +29°C° 0 mm 3 mps 673 mmHg 47%
11:00 +30°C° 0 mm 3 mps 673 mmHg 40%
12:00 +33°C° 0 mm 3 mps 673 mmHg 33%
13:00 +34°C° 0 mm 3 mps 672 mmHg 29%
14:00 +35°C° 0 mm 2 mps 671 mmHg 25%
15:00 +36°C° 0 mm 2 mps 671 mmHg 21%
16:00 +35°C° 0 mm 2 mps 671 mmHg 23%
17:00 +35°C° 0 mm 3 mps 671 mmHg 24%
18:00 +34°C° 0 mm 3 mps 671 mmHg 25%
19:00 +33°C° 0 mm 4 mps 671 mmHg 30%
20:00 +32°C° 0 mm 4 mps 672 mmHg 34%
21:00 +30°C° 0 mm 4 mps 672 mmHg 38%
22:00 +30°C° 0.1 mm 4 mps 672 mmHg 39%
23:00 +29°C° 0.1 mm 3 mps 672 mmHg 41%

Day after tomorrow, 17 April, Saturday

Time Temperature Precipitation Wind Pressure Humidity
00:00 +29°C° 0.1 mm 3 mps 672 mmHg 42%
01:00 +28°C° 0.1 mm 3 mps 671 mmHg 44%
02:00 +28°C° 0.1 mm 3 mps 671 mmHg 45%
03:00 +27°C° 0.1 mm 3 mps 671 mmHg 46%
04:00 +26°C° 0 mm 4 mps 671 mmHg 51%
05:00 +25°C° 0 mm 5 mps 672 mmHg 56%
06:00 +23°C° 0 mm 6 mps 672 mmHg 61%
07:00 +25°C° 0 mm 5 mps 673 mmHg 59%
08:00 +26°C° 0 mm 5 mps 674 mmHg 58%
09:00 +26°C° 0 mm 5 mps 674 mmHg 56%
10:00 +28°C° 0 mm 4 mps 674 mmHg 50%
11:00 +29°C° 0 mm 4 mps 673 mmHg 45%
12:00 +31°C° 0 mm 3 mps 673 mmHg 40%
13:00 +32°C° 0.1 mm 4 mps 672 mmHg 38%
14:00 +33°C° 0.1 mm 4 mps 672 mmHg 36%
15:00 +33°C° 0.1 mm 4 mps 671 mmHg 35%
16:00 +32°C° 0.1 mm 5 mps 671 mmHg 36%
17:00 +32°C° 0.1 mm 5 mps 672 mmHg 37%
18:00 +32°C° 0.1 mm 5 mps 672 mmHg 38%
19:00 +29°C° 0.2 mm 4 mps 672 mmHg 42%
20:00 +28°C° 0.2 mm 3 mps 672 mmHg 46%
21:00 +27°C° 0.2 mm 1 mps 673 mmHg 50%
22:00 +27°C° 0.5 mm 2 mps 672 mmHg 54%
23:00 +26°C° 0.5 mm 3 mps 672 mmHg 59%

18 April, Sunday

Time Temperature Precipitation Wind Pressure Humidity
00:00 +25°C° 0.5 mm 4 mps 672 mmHg 63%
01:00 +25°C° 0.1 mm 3 mps 672 mmHg 64%
02:00 +24°C° 0.1 mm 2 mps 672 mmHg 65%
03:00 +24°C° 0.1 mm 1 mps 671 mmHg 66%
04:00 +24°C° 0.2 mm 1 mps 672 mmHg 68%
05:00 +23°C° 0.2 mm 2 mps 672 mmHg 70%
06:00 +23°C° 0.2 mm 2 mps 673 mmHg 73%
07:00 +24°C° 0 mm 3 mps 674 mmHg 67%
08:00 +26°C° 0 mm 4 mps 674 mmHg 62%
09:00 +27°C° 0 mm 4 mps 675 mmHg 57%
10:00 +28°C° 0.1 mm 4 mps 674 mmHg 53%
11:00 +29°C° 0.1 mm 4 mps 674 mmHg 49%
12:00 +29°C° 0.1 mm 4 mps 673 mmHg 46%
13:00 +29°C° 0.3 mm 3 mps 673 mmHg 45%
14:00 +29°C° 0.3 mm 3 mps 672 mmHg 45%
15:00 +29°C° 0.3 mm 3 mps 672 mmHg 45%
16:00 +28°C° 0.4 mm 3 mps 672 mmHg 50%
17:00 +27°C° 0.4 mm 4 mps 672 mmHg 55%
18:00 +26°C° 0.4 mm 4 mps 672 mmHg 59%
19:00 +25°C° 1.7 mm 4 mps 672 mmHg 63%
20:00 +25°C° 1.7 mm 5 mps 673 mmHg 66%
21:00 +23°C° 1.7 mm 5 mps 673 mmHg 70%
22:00 +22°C° 1.6 mm 5 mps 673 mmHg 68%
23:00 +22°C° 1.6 mm 4 mps 673 mmHg 66%

19 April, Monday

Time Temperature Precipitation Wind Pressure Humidity
00:00 +22°C° 1.6 mm 4 mps 673 mmHg 65%
01:00 +22°C° 0.4 mm 3 mps 673 mmHg 65%
02:00 +22°C° 0.4 mm 3 mps 673 mmHg 66%
03:00 +23°C° 0.4 mm 2 mps 672 mmHg 67%
04:00 +23°C° 0.5 mm 2 mps 673 mmHg 70%
05:00 +21°C° 0.5 mm 2 mps 673 mmHg 73%
06:00 +21°C° 0.5 mm 2 mps 673 mmHg 77%
07:00 +22°C° 0.9 mm 3 mps 674 mmHg 72%
08:00 +24°C° 0.9 mm 3 mps 674 mmHg 68%
09:00 +25°C° 0.9 mm 3 mps 675 mmHg 63%
10:00 +26°C° 0.8 mm 3 mps 674 mmHg 59%
11:00 +27°C° 0.8 mm 2 mps 674 mmHg 54%
12:00 +28°C° 0.8 mm 2 mps 674 mmHg 50%
13:00 +28°C° 0.2 mm 2 mps 673 mmHg 48%
14:00 +29°C° 0.2 mm 2 mps 673 mmHg 46%
15:00 +29°C° 0.2 mm 3 mps 672 mmHg 43%
16:00 +28°C° 1 mm 4 mps 672 mmHg 51%
17:00 +26°C° 1 mm 5 mps 672 mmHg 59%
18:00 +24°C° 1 mm 7 mps 672 mmHg 67%
19:00 +24°C° 0.3 mm 6 mps 672 mmHg 66%
20:00 +23°C° 0.3 mm 5 mps 673 mmHg 66%
21:00 +23°C° 0.3 mm 5 mps 673 mmHg 65%
22:00 +23°C° 0 mm 4 mps 673 mmHg 66%
23:00 +23°C° 0 mm 4 mps 673 mmHg 67%

20 April, Tuesday

Time Temperature Precipitation Wind Pressure Humidity
00:00 +24°C° 0 mm 3 mps 673 mmHg 67%
01:00 +24°C° 0 mm 3 mps 672 mmHg 69%
02:00 +22°C° 0 mm 3 mps 672 mmHg 70%
03:00 +23°C° 0 mm 2 mps 671 mmHg 72%
04:00 +23°C° 0 mm 2 mps 672 mmHg 70%
05:00 +24°C° 0 mm 2 mps 672 mmHg 68%
06:00 +24°C° 0 mm 2 mps 672 mmHg 66%
07:00 +25°C° 0 mm 3 mps 673 mmHg 63%
08:00 +25°C° 0 mm 3 mps 673 mmHg 59%
09:00 +26°C° 0 mm 4 mps 674 mmHg 56%
10:00 +27°C° 0 mm 3 mps 674 mmHg 51%
11:00 +28°C° 0 mm 3 mps 673 mmHg 47%
12:00 +29°C° 0 mm 2 mps 673 mmHg 42%
13:00 +30°C° 0 mm 2 mps 672 mmHg 39%
14:00 +31°C° 0 mm 1 mps 672 mmHg 37%
15:00 +31°C° 0 mm 1 mps 671 mmHg 34%
16:00 +31°C° 0 mm 2 mps 671 mmHg 35%
17:00 +31°C° 0 mm 2 mps 671 mmHg 36%
18:00 +30°C° 0 mm 2 mps 672 mmHg 37%
19:00 +30°C° 0 mm 3 mps 672 mmHg 40%
20:00 +29°C° 0 mm 3 mps 672 mmHg 43%
21:00 +29°C° 0 mm 3 mps 672 mmHg 46%
22:00 +28°C° 0 mm 3 mps 672 mmHg 47%
23:00 +28°C° 0 mm 3 mps 672 mmHg 49%
Show more

We Need Your Consent

Meteoprog and our Service Providers may store and access personal data such as cookies, device identifiers or other similar technologies on your device and process such data to personalise content and ads, as well as provide social media features and to analyse the traffic.

  • Store and/or access information on your device

    Cookies, device identifiers or other information can be stored or accessed on your device for the purposes indicated above.

  • Personalised ads and content, ad and content measurement, audience insights, and products development

    Ads and content can be personalised based on a profile. More data can be added to better personalise ads and content. Ad and content performance can be measured. Insights about the audience who saw the ads and content can be derived. Such data can be used to develop or improve user’s experience, systems and software.

By clicking ‘I Agree’ you will allow the use of indicated cookies, device identifiers, web beacons or other similar technologies. Your settings can be changed in the browser on your device.

For certain purposes, legitimate interests may be relied on, rather than consent. You can read more about this in our Privacy and Cookie Policy.